Current weather by "City, St" or "zip code"  
 

Current Conditions: RICHLAND

Cloudy


65.7 F

Last Updated on Jun 17 2024, 08:15 PM PDT
Humidity: 53%
Wind Speed: S 3.4 mph
Barometer 29.91 in
Dewpoint: 47.8 F
Visibility: 10.00 mi
Precip: --
Heat Index: NA
Wind Chill: NA
Current conditions at:

RICHLAND (KRLD)

Lat: 46.31 Lon: 119.3

active severe weather and emergency alerts image image weather storm and storm spotter reports image weather observation monitoring service image
Active
Alerts
Storm Reports Obs
Monitoring

Sign-up For Email & Text Message Weather Alert Notification Services



Advertise Here

Observation History for RICHLAND


Time Wind
(mph)
Vis
(mi)
Weather Precip (in) Temperature (F) Relative
Humidity
Wind
Chill
(F)
Heat
Index
(F)
Pressure
Air Dwpt altimeter
(in)
sea level
(mb)
Rmks
08:15 PM PDT S 3.4 10.00 Cloudy -- 65.7 47.8 53% NA NA 29.91 1012.9
07:55 PM PDT 9.2 10.00 Mostly Cloudy -- 65.7 47.5 52% NA NA 29.90 1012.5
07:15 PM PDT S 13.8 10.00 Partly Cloudy -- 69.1 45.5 43% NA NA 29.89 1012.2
06:35 PM PDT S 11.5 10.00 Mostly Cloudy -- 66.7 46.6 48% NA NA 29.88 1011.9
05:15 PM PDT SW 17.3 10.00 Partly Cloudy -- 69.6 41.4 36% NA NA 29.86 1011.2
04:55 PM PDT SW 17.3 10.00 Mostly Cloudy -- 72.3 40.8 32% NA 70.7 29.86 1011.2
03:55 PM PDT S 11.5 10.00 Mostly Cloudy -- 71.1 41.7 35% NA 69.4 29.87 1011.5
02:15 PM PDT SW 10.4 10.00 Cloudy -- 70.7 38.8 31% NA 68.9 29.88 1011.9
01:35 PM PDT 13.8 10.00 Cloudy -- 70.5 38.5 31% NA 68.7 29.89 1012.2
01:15 PM PDT SW 9.2 10.00 Cloudy -- 69.4 38.7 32% NA NA 29.90 1012.5
12:55 PM PDT SW 6.9 10.00 Mostly Cloudy -- 68.2 38.5 34% NA NA 29.90 1012.5
12:15 PM PDT SW 8.1 10.00 Mostly Cloudy -- 67.3 35.4 31% NA NA 29.91 1012.9
11:15 AM PDT 9.2 10.00 Partly Cloudy -- 66.9 36.3 32% NA NA 29.91 1012.9
09:35 AM PDT SW 6.9 10.00 Mostly Cloudy -- 62.6 37.9 40% NA NA 29.92 1013.2
09:15 AM PDT SW 9.2 10.00 Partly Cloudy -- 61.5 38.3 42% NA NA 29.92 1013.2
05:55 AM PDT 0.0 10.00 Clear -- 46.8 38.5 73% NA NA 29.90 1012.5
05:15 AM PDT 0.0 10.00 Clear -- 47.7 38.8 71% NA NA 29.89 1012.2
04:35 AM PDT W 4.6 10.00 Clear -- 44.2 38.7 81% 41.7 NA 29.88 1011.9
04:15 AM PDT W 4.6 10.00 Clear -- 44.8 38.5 78% 42.4 NA 29.87 1011.5
03:15 AM PDT W 5.7 10.00 Clear -- 46.4 39.4 76% 43.5 NA 29.87 1011.5
02:20 AM PDT W 6.9 10.00 Clear -- 48.2 39.9 73% 45.1 NA 29.87 1011.5
01:15 AM PDT 0.0 10.00 Clear -- 47.3 39.0 73% NA NA 29.87 1011.5
12:55 AM PDT 10.00 Clear -- NULL % NA NA M
12:15 AM PDT SW 4.6 10.00 Partly Cloudy -- 50.0 39.6 67% NA NA 29.87 1011.5

Regional Weather Observation


PASCO (KPSC)

Mostly Cloudy
66.0 F

SUNNYSIDE (K1S5)

Clear
63.9 F

YAGABOND AAF (K1YT)

Clear
63.1 F

YAKIMA (KYKM)

Mostly Clear
63.0 F

MOSES LAKE (KMWH)

Mostly Cloudy
62.1 F

HERMISTON (KHRI)

Windy
61.0 F

Advertise Here


Advertise Here